Погода в Ораном

Украина / Киевская область     51°03′12″N   30°07′11″E
темп.,
°C
ветер,
м/с
пор.,
м/с
влажн.,
%
обл.,
%
осадки,
мм/ч
давл.,
гПа
погр.,
м
15 апреля, чт
чт1500:00+8ссв228598 0.0 101420
03:00+7ссв1187100 0.0 101310
06:00+8св2690100 0.2 1013192
09:00+8ссз2492100 0.5 1012181
12:00+9зсз2384100 0.1 1012254
15:00+11зсз3275100 0.4 1011728
18:00+10зсз2286100 1.3 1011324
21:00+8зюз2396100 2.1 1011135
16 апреля, пт
пт1600:00+8юз239790 0.1 101097
03:00+6ююз2397100 0.1 101048
06:00+6юз2396100 0.0 1010162
09:00+7юз3488100 0.0 1011291
12:00+9юз337795 0.0 1012676
15:00+9юз337289 0.0 1012794
18:00+7зюз4481100 0.0 1014503
21:00+5зюз458994 0.0 1015326
17 апреля, сб
сб1700:00+5зюз3584100 0.0 1016417
03:00+4юз2483100 0.0 1017361
06:00+4ююз2383100 0.0 1018326
09:00+5ю2376100 0.0 1019531
12:00+7ю2367100 0.0 1020977
15:00+8ююз2263100 0.1 10201278
18:00+7ююз237288 0.0 1021556
21:00+4юз239441 0.0 102144
18 апреля, вс
вс1800:00+3зсз119527 0.0 102212
03:00+3юз119659 0.0 102128
06:00+2з119513 0.0 102110
09:00+7зсз11788 0.0 1021327
12:00+12з11575 0.0 1021919
15:00+14ссз324874 0.0 10201728
18:00+13ссв344998 0.0 10191185
21:00+10всв2679100 0.0 1020229
19 апреля, пн
пн1900:00+9в3786100 0.2 1021334
03:00+6всв379288 0.2 1021198
06:00+5всв498883 0.0 1021297
09:00+9в5974100 0.0 1021623
12:00+12в6861100 0.0 10201315
15:00+13в6854100 0.1 10191689
18:00+13в6856100 0.0 10181539
21:00+8в61273100 0.0 1018697